N6OIM Weather Reports


Display with metric or nautical units.
time (UTC)temp
F
wind
direction
speed
MPH
gust
MPH
rain 1hr
in
rain 24hr
in
rain mn
in
humidity
%
barometer
mb
20260902202321 77 257 0.0 0.0 0.00 0.00 0.00 49 1015.4
20260902201829 77 231 0.0 0.0 0.00 0.00 0.00 50 1015.4
20260902201317 77 208 0.0 0.0 0.00 0.00 0.00 49 1015.4
20260902200828 77 275 0.0 0.0 0.00 0.00 0.00 49 1015.4
20260902200317 77 248 0.0 0.0 0.00 0.00 0.00 49 1015.5
20260902195826 77 236 0.0 0.0 0.00 0.00 0.00 49 1015.5
20260902195320 77 209 0.0 0.0 0.00 0.00 0.00 50 1015.5
20260902194828 77 208 0.0 0.0 0.00 0.00 0.00 51 1015.6
20260902194318 77 248 0.0 0.0 0.00 0.00 0.00 50 1015.6
20260902193827 77 251 0.0 0.0 0.00 0.00 0.00 51 1015.5
20260902193336 77 267 0.0 0.0 0.00 0.00 0.00 51 1015.5
20260902192824 77 195 0.0 0.0 0.00 0.00 0.00 49 1015.7
20260902192317 77 185 0.0 0.0 0.00 0.00 0.00 49 1015.9
20260902191826 77 173 0.0 0.0 0.00 0.00 0.00 50 1016.0
20260902191320 77 125 0.0 0.0 0.00 0.00 0.00 51 1015.9
20260902190829 76 196 0.0 0.0 0.00 0.00 0.00 51 1015.9
20260902190319 76 218 0.0 0.0 0.00 0.00 0.00 53 1015.9
20260902185827 75 232 0.0 0.0 0.00 0.00 0.00 53 1015.9
20260902185320 75 232 0.0 0.0 0.00 0.00 0.00 53 1016.1
20260902184825 75 232 0.0 0.0 0.00 0.00 0.00 54 1016.2
20260902184334 75 262 0.0 0.0 0.00 0.00 0.00 53 1016.1
20260902183821 75 268 0.0 0.0 0.00 0.00 0.00 53 1016.2
20260902183331 75 275 0.0 0.0 0.00 0.00 0.00 52 1016.2
20260902182822 75 162 0.0 0.0 0.00 0.00 0.00 52 1016.1
20260902182332 75 188 0.0 0.0 0.00 0.00 0.00 53 1016.2
20260902181822 74 198 0.0 0.0 0.00 0.00 0.00 55 1016.2
20260902181331 74 208 0.0 0.0 0.00 0.00 0.00 55 1016.2
20260902180819 74 207 0.0 0.0 0.00 0.00 0.00 55 1016.2
20260902180328 74 205 0.0 0.0 0.00 0.00 0.00 56 1016.1
20260902175818 74 209 0.0 0.0 0.00 0.00 0.00 55 1016.1
20260902175327 73 207 0.0 0.0 0.00 0.00 0.00 57 1016.2
20260902174836 73 202 0.0 0.0 0.00 0.00 0.00 57 1016.1
20260902174330 73 202 0.0 0.0 0.00 0.00 0.00 57 1016.2
20260902173818 73 203 0.0 0.0 0.00 0.00 0.00 57 1016.1
20260902173328 73 202 0.0 0.0 0.00 0.00 0.00 57 1016.2
20260902172836 72 153 0.0 0.0 0.00 0.00 0.00 59 1016.2
20260902172326 72 192 0.0 0.0 0.00 0.00 0.00 60 1016.1
20260902171833 72 192 0.0 0.0 0.00 0.00 0.00 60 1016.1
20260902171323 72 190 0.0 0.0 0.00 0.00 0.00 60 1016.1
20260902170831 71 159 0.0 0.0 0.00 0.00 0.00 60 1016.2
20260902170321 71 159 0.0 0.0 0.00 0.00 0.00 62 1016.2
20260902165833 70 155 0.0 0.0 0.00 0.00 0.00 62 1016.1
20260902165323 70 155 0.0 0.0 0.00 0.00 0.00 63 1016.0
20260902164832 69 155 0.0 0.0 0.00 0.00 0.00 64 1016.0
20260902164322 69 135 0.0 0.0 0.00 0.00 0.00 65 1015.9
20260902163830 69 136 0.0 0.0 0.00 0.00 0.00 65 1015.9
20260902163322 68 130 0.0 0.0 0.00 0.00 0.00 66 1015.8
20260902162830 68 123 0.0 0.0 0.00 0.00 0.00 67 1015.9
20260902162319 68 123 0.0 0.0 0.00 0.00 0.00 67 1015.9
20260902161829 67 122 0.0 0.0 0.00 0.00 0.00 68 1015.9
20260902161323 67 122 0.0 0.0 0.00 0.00 0.00 69 1016.0
20260902160832 66 123 0.0 0.0 0.00 0.00 0.00 70 1015.9
20260902160322 66 124 0.0 0.0 0.00 0.00 0.00 71 1016.1
20260902155830 65 125 0.0 0.0 0.00 0.00 0.00 71 1016.1
20260902155319 65 125 0.0 0.0 0.00 0.00 0.00 71 1016.1
20260902154826 65 126 0.0 0.0 0.00 0.00 0.00 72 1016.2
20260902154318 64 115 0.0 0.0 0.00 0.00 0.00 73 1016.2
20260902153827 64 115 0.0 0.0 0.00 0.00 0.00 73 1016.2
20260902153320 63 115 0.0 0.0 0.00 0.00 0.00 74 1016.1
20260902152829 63 115 0.0 0.0 0.00 0.00 0.00 75 1016.1
20260902152318 63 138 0.0 0.0 0.00 0.00 0.00 76 1016.0
20260902151826 62 138 0.0 0.0 0.00 0.00 0.00 76 1015.9
20260902151335 62 141 0.0 0.0 0.00 0.00 0.00 77 1015.8
20260902150824 62 141 0.0 0.0 0.00 0.00 0.00 77 1015.9
20260902150333 61 141 0.0 0.0 0.00 0.00 0.00 77 1015.9
20260902145825 61 141 0.0 0.0 0.00 0.00 0.00 77 1015.9
20260902145335 61 141 0.0 0.0 0.00 0.00 0.00 77 1015.8
20260902144826 61 141 0.0 0.0 0.00 0.00 0.00 78 1015.7
20260902144335 61 141 0.0 0.0 0.00 0.00 0.00 78 1015.7
20260902143826 61 141 0.0 0.0 0.00 0.00 0.00 78 1015.6
20260902143335 61 141 0.0 0.0 0.00 0.00 0.00 78 1015.5
20260902142824 60 141 0.0 0.0 0.00 0.00 0.00 78 1015.4
20260902142334 60 141 0.0 0.0 0.00 0.00 0.00 79 1015.5
20260902141825 60 141 0.0 0.0 0.00 0.00 0.00 79 1015.5
20260902141335 60 141 0.0 0.0 0.00 0.00 0.00 79 1015.6
20260902140824 60 141 0.0 0.0 0.00 0.00 0.00 79 1015.7
20260902140317 60 141 0.0 0.0 0.00 0.00 0.00 79 1015.6
20260902135826 60 141 0.0 0.0 0.00 0.00 0.00 79 1015.5
20260902135334 60 141 0.0 0.0 0.00 0.00 0.00 78 1015.4
20260902134823 60 141 0.0 0.0 0.00 0.00 0.00 78 1015.5
20260902134334 60 141 0.0 0.0 0.00 0.00 0.00 78 1015.4
20260902133822 60 141 0.0 0.0 0.00 0.00 0.00 78 1015.3
20260902133332 60 141 0.0 0.0 0.00 0.00 0.00 78 1015.1
20260902132820 60 141 0.0 0.0 0.00 0.00 0.00 78 1015.0
20260902132329 60 141 0.0 0.0 0.00 0.00 0.00 78 1014.9
20260902131821 60 141 0.0 0.0 0.00 0.00 0.00 78 1015.0
20260902131330 60 141 0.0 0.0 0.00 0.00 0.00 78 1014.9
20260902130818 60 141 0.0 0.0 0.00 0.00 0.00 78 1014.9
20260902130326 60 141 0.0 0.0 0.00 0.00 0.00 78 1015.0
20260902125833 60 141 0.0 0.0 0.00 0.00 0.00 78 1015.0
20260902125322 60 141 0.0 0.0 0.00 0.00 0.00 78 1015.0
20260902124834 60 141 0.0 0.0 0.00 0.00 0.00 78 1014.9
20260902124326 60 141 0.0 0.0 0.00 0.00 0.00 78 1015.0
20260902123819 60 141 0.0 0.0 0.00 0.00 0.00 78 1015.0
20260902123329 60 141 0.0 0.0 0.00 0.00 0.00 78 1014.9
20260902122817 60 141 0.0 0.0 0.00 0.00 0.00 77 1014.9
20260902122326 60 141 0.0 0.0 0.00 0.00 0.00 77 1015.0
20260902121834 60 141 0.0 0.0 0.00 0.00 0.00 77 1014.9
20260902121323 60 141 0.0 0.0 0.00 0.00 0.00 77 1014.9
20260902120831 60 141 0.0 0.0 0.00 0.00 0.00 77 1015.0
20260902120323 60 141 0.0 0.0 0.00 0.00 0.00 78 1015.0
20260902115831 60 141 0.0 0.0 0.00 0.00 0.00 78 1014.9
20260902115324 60 141 0.0 0.0 0.00 0.00 0.00 78 1015.0
20260902114833 60 141 0.0 0.0 0.00 0.00 0.00 78 1015.0
20260902114325 60 141 0.0 0.0 0.00 0.00 0.00 78 1015.0
20260902113833 60 141 0.0 0.0 0.00 0.00 0.00 78 1014.8
20260902113323 60 141 0.0 0.0 0.00 0.00 0.00 77 1014.8
20260902112832 60 141 0.0 0.0 0.00 0.00 0.00 77 1014.8
20260902112325 60 141 0.0 0.0 0.00 0.00 0.00 77 1014.7
20260902111832 60 141 0.0 0.0 0.00 0.00 0.00 77 1014.7
20260902111321 60 141 0.0 0.0 0.00 0.00 0.00 77 1014.7
20260902110833 60 141 0.0 0.0 0.00 0.00 0.00 77 1014.8
20260902110325 60 141 0.0 0.0 0.00 0.00 0.00 76 1014.8
20260902105833 60 141 0.0 0.0 0.00 0.00 0.00 76 1014.8
20260902105325 60 141 0.0 0.0 0.00 0.00 0.00 76 1014.9
20260902104834 60 141 0.0 0.0 0.00 0.00 0.00 76 1015.0
20260902104324 60 141 0.0 0.0 0.00 0.00 0.00 76 1015.0
20260902103833 60 141 0.0 0.0 0.00 0.00 0.00 76 1015.0
20260902103322 60 141 0.0 0.0 0.00 0.00 0.00 76 1015.0
20260902102817 60 141 0.0 0.0 0.00 0.00 0.00 76 1015.0
20260902102329 60 141 0.0 0.0 0.00 0.00 0.00 76 1015.1
20260902101817 60 141 0.0 0.0 0.00 0.00 0.00 76 1015.2
20260902101325 60 141 0.0 0.0 0.00 0.00 0.00 76 1015.1
20260902100834 60 141 0.0 0.0 0.00 0.00 0.00 76 1015.2
20260902100324 60 141 0.0 0.0 0.00 0.00 0.00 76 1015.2
20260902095832 60 141 0.0 0.0 0.00 0.00 0.00 76 1015.3
20260902095325 60 141 0.0 0.0 0.00 0.00 0.00 76 1015.3
20260902094833 60 141 0.0 0.0 0.00 0.00 0.00 75 1015.3
20260902094328 60 141 0.0 0.0 0.00 0.00 0.00 76 1015.3
20260902093818 60 141 0.0 0.0 0.00 0.00 0.00 75 1015.3
20260902093326 60 141 0.0 0.0 0.00 0.00 0.00 75 1015.3
20260902092834 60 141 0.0 0.0 0.00 0.00 0.00 75 1015.1
20260902092323 60 141 0.0 0.0 0.00 0.00 0.00 74 1015.1
20260902091834 60 141 0.0 0.0 0.00 0.00 0.00 74 1015.1
20260902091323 61 141 0.0 0.0 0.00 0.00 0.00 74 1015.1
20260902090835 61 141 0.0 0.0 0.00 0.00 0.00 74 1015.1
20260902090324 61 141 0.0 0.0 0.00 0.00 0.00 74 1015.1
20260902085818 61 141 0.0 0.0 0.00 0.00 0.00 75 1015.0
20260902085326 61 141 0.0 0.0 0.00 0.00 0.00 75 1015.1
20260902084835 61 141 0.0 0.0 0.00 0.00 0.00 75 1015.1
20260902084324 61 141 0.0 0.0 0.00 0.00 0.00 74 1015.1
20260902083832 61 141 0.0 0.0 0.00 0.00 0.00 74 1015.1
20260902083325 61 141 0.0 0.0 0.00 0.00 0.00 74 1015.1
20260902082832 61 141 0.0 0.0 0.00 0.00 0.00 74 1015.1
20260902082324 61 141 0.0 0.0 0.00 0.00 0.00 74 1015.0
20260902081817 61 144 0.0 0.0 0.00 0.00 0.00 74 1015.1
20260902081325 61 144 0.0 0.0 0.00 0.00 0.00 73 1015.1
20260902080834 61 143 0.0 0.0 0.00 0.00 0.00 73 1015.1
20260902080324 61 142 0.0 0.0 0.00 0.00 0.00 73 1015.0
20260902075833 61 136 0.0 0.0 0.00 0.00 0.00 73 1015.0
20260902075324 61 121 0.0 0.0 0.00 0.00 0.00 73 1015.0
20260902074831 62 120 0.0 0.0 0.00 0.00 0.00 73 1014.9
20260902074320 62 120 0.0 0.0 0.00 0.00 0.00 73 1014.8
20260902073827 62 118 0.0 0.0 0.00 0.00 0.00 72 1014.9
20260902073321 62 118 0.0 0.0 0.00 0.00 0.00 72 1014.8
20260902072829 62 119 0.0 0.0 0.00 0.00 0.00 72 1014.7
20260902072318 62 119 0.0 0.0 0.00 0.00 0.00 72 1014.6
20260902071826 62 118 0.0 0.0 0.00 0.00 0.00 72 1014.7
20260902071334 62 118 0.0 0.0 0.00 0.00 0.00 72 1014.7
20260902070822 62 117 0.0 0.0 0.00 0.00 0.00 72 1014.7
20260902070332 62 117 0.0 0.0 0.00 0.00 0.00 72 1014.7
20260902065823 62 121 0.0 0.0 0.00 0.00 0.00 72 1014.6
20260902065333 62 122 0.0 0.0 0.00 0.00 0.00 71 1014.8
20260902064825 62 122 0.0 0.0 0.00 0.00 0.00 71 1014.7
20260902064318 62 127 0.0 0.0 0.00 0.00 0.00 71 1014.7
20260902063829 63 126 0.0 0.0 0.00 0.00 0.00 70 1014.8
20260902063318 63 127 0.0 0.0 0.00 0.00 0.00 70 1014.9
20260902062827 63 127 0.0 0.0 0.00 0.00 0.00 70 1015.0
20260902062316 63 176 0.0 0.0 0.00 0.00 0.00 70 1014.9
20260902061828 63 178 0.0 0.0 0.00 0.00 0.00 69 1015.0
20260902061316 63 178 0.0 0.0 0.00 0.00 0.00 68 1015.1
20260902060828 63 178 0.0 0.0 0.00 0.00 0.00 68 1015.1
20260902060321 64 178 0.0 0.0 0.00 0.00 0.00 68 1015.0
20260902055828 64 178 0.0 0.0 0.00 0.00 0.00 67 1015.0
20260902055317 64 178 0.0 0.0 0.00 0.00 0.00 67 1015.0
20260902054826 64 178 0.0 0.0 0.00 0.00 0.00 67 1014.9
20260902054337 64 178 0.0 0.0 0.00 0.00 0.00 67 1015.1
20260902053825 64 178 0.0 0.0 0.00 0.00 0.00 67 1015.0
20260902053318 64 244 0.0 0.0 0.00 0.00 0.00 66 1015.0
20260902052828 65 244 0.0 0.0 0.00 0.00 0.00 65 1014.9
20260902052324 65 244 0.0 0.0 0.00 0.00 0.00 65 1014.9
20260902051833 65 244 0.0 0.0 0.00 0.00 0.00 64 1014.8
20260902051324 65 244 0.0 0.0 0.00 0.00 0.00 64 1014.8
20260902050833 65 244 0.0 0.0 0.00 0.00 0.00 64 1014.9
20260902050322 65 244 0.0 0.0 0.00 0.00 0.00 63 1015.0
20260902045831 65 244 0.0 0.0 0.00 0.00 0.00 63 1014.9
20260902045319 65 244 0.0 0.0 0.00 0.00 0.00 63 1015.0
20260902044828 65 244 0.0 0.0 0.00 0.00 0.00 63 1015.0
20260902044318 66 244 0.0 0.0 0.00 0.00 0.00 62 1014.9
20260902043831 66 244 0.0 0.0 0.00 0.00 0.00 62 1014.9
20260902043324 66 244 0.0 0.0 0.00 0.00 0.00 62 1014.7
20260902042832 66 216 0.0 0.0 0.00 0.00 0.00 61 1014.7
20260902042322 66 215 0.0 0.0 0.00 0.00 0.00 61 1014.6
20260902041830 66 194 0.0 0.0 0.00 0.00 0.00 61 1014.5
20260902041319 67 241 0.0 0.0 0.00 0.00 0.00 60 1014.4
20260902040827 67 247 0.0 0.0 0.00 0.00 0.00 60 1014.4
20260902040337 67 247 0.0 0.0 0.00 0.00 0.00 60 1014.2
20260902035824 67 246 0.0 0.0 0.00 0.00 0.00 59 1014.1
20260902035317 67 242 0.0 0.0 0.00 0.00 0.00 59 1014.0
20260902034824 67 263 0.0 0.0 0.00 0.00 0.00 58 1013.9
20260902034334 68 260 0.0 0.0 0.00 0.00 0.00 58 1013.7
20260902033822 68 210 0.0 0.0 0.00 0.00 0.00 58 1013.6
20260902033332 68 291 0.0 0.0 0.00 0.00 0.00 57 1013.6
20260902032819 68 329 0.0 0.0 0.00 0.00 0.00 56 1013.6
20260902032329 68 253 0.0 0.0 0.00 0.00 0.00 57 1013.4
20260902031836 68 265 0.0 0.0 0.00 0.00 0.00 56 1013.4
20260902031324 69 259 0.0 0.0 0.00 0.00 0.00 55 1013.3
20260902030817 69 240 0.0 0.0 0.00 0.00 0.00 54 1013.2
20260902030325 69 286 0.0 0.0 0.00 0.00 0.00 54 1013.1
20260902025814 69 215 0.0 0.0 0.00 0.00 0.00 53 1013.1
20260902025325 69 213 0.0 0.0 0.00 0.00 0.00 52 1013.1
20260902024833 70 272 0.0 0.0 0.00 0.00 0.00 52 1012.9
20260902024321 70 279 0.0 0.0 0.00 0.00 0.00 51 1012.9
20260902023829 70 263 0.0 0.0 0.00 0.00 0.00 51 1012.9
20260902023319 70 259 0.0 0.0 0.00 0.00 0.00 50 1012.8
20260902022828 71 259 0.0 0.0 0.00 0.00 0.00 49 1012.8
20260902022320 71 251 0.0 0.0 0.00 0.00 0.00 49 1012.7
20260902021832 71 248 0.0 0.0 0.00 0.00 0.00 48 1012.7
20260902021324 72 248 0.0 0.0 0.00 0.00 0.00 48 1012.6
20260902020832 72 249 0.0 0.0 0.00 0.00 0.00 47 1012.6
20260902020325 72 234 0.0 0.0 0.00 0.00 0.00 46 1012.6
20260902015834 73 278 0.0 0.0 0.00 0.00 0.00 45 1012.6
20260902015323 74 257 0.0 0.0 0.00 0.00 0.00 45 1012.6
20260902014832 74 284 0.0 0.0 0.00 0.00 0.00 44 1012.5
20260902014326 75 238 0.0 0.0 0.00 0.00 0.00 44 1012.4
20260902013816 75 229 0.0 0.0 0.00 0.00 0.00 42 1012.3
20260902013330 76 243 0.0 0.0 0.00 0.00 0.00 42 1012.3
20260902012822 76 202 0.0 0.0 0.00 0.00 0.00 41 1012.4
20260902012332 77 229 0.0 0.0 0.00 0.00 0.00 41 1012.4
20260902011823 77 211 0.0 0.0 0.00 0.00 0.00 40 1012.3
20260902011332 77 219 0.0 0.0 0.00 0.00 0.00 40 1012.2
20260902010822 78 256 0.0 0.0 0.00 0.00 0.00 39 1012.2
20260902010332 78 252 0.0 0.0 0.00 0.00 0.00 39 1012.3
20260902005825 78 236 0.0 0.0 0.00 0.00 0.00 37 1012.3
20260902005334 79 271 0.0 0.0 0.00 0.00 0.00 38 1012.2
20260902004822 79 240 0.0 0.0 0.00 0.00 0.00 38 1012.2
20260902004332 79 199 0.0 0.0 0.00 0.00 0.00 38 1012.2
20260902003820 79 213 0.0 0.0 0.00 0.00 0.00 38 1012.3
20260902003330 79 296 0.0 0.0 0.00 0.00 0.00 38 1012.3
20260902002818 79 203 0.0 0.0 0.00 0.00 0.00 38 1012.3
20260902002328 79 278 0.0 0.0 0.00 0.00 0.00 37 1012.3
20260902001821 79 225 0.0 0.0 0.00 0.00 0.00 37 1012.4
20260902001329 80 221 0.0 0.0 0.00 0.00 0.00 36 1012.3
20260902000817 79 206 0.0 0.0 0.00 0.00 0.00 36 1012.4
20260902000330 79 241 0.0 0.0 0.00 0.00 0.00 37 1012.4
20260901235819 79 241 0.0 0.0 0.00 0.00 0.00 36 1012.3
20260901235328 79 237 0.0 0.0 0.00 0.00 0.00 36 1012.4
20260901234816 79 187 0.0 0.0 0.00 0.00 0.00 37 1012.3
20260901234328 79 126 0.0 0.0 0.00 0.00 0.00 37 1012.4
20260901233817 79 234 0.0 0.0 0.00 0.00 0.00 37 1012.5
20260901233330 79 247 0.0 0.0 0.00 0.00 0.00 37 1012.5
20260901232822 79 238 0.0 0.0 0.00 0.00 0.00 36 1012.6
20260901232332 79 209 0.0 0.0 0.00 0.00 0.00 37 1012.6
20260901231824 79 222 0.0 0.0 0.00 0.00 0.00 36 1012.6
20260901231333 79 142 0.0 0.0 0.00 0.00 0.00 36 1012.6
20260901230822 79 148 0.0 0.0 0.00 0.00 0.00 37 1012.8
20260901230332 79 211 0.0 0.0 0.00 0.00 0.00 37 1012.8
20260901225820 79 209 0.0 0.0 0.00 0.00 0.00 37 1012.8
20260901225331 79 295 0.0 0.0 0.00 0.00 0.00 37 1012.8
20260901224824 78 211 0.0 0.0 0.00 0.00 0.00 38 1012.9
20260901224333 78 271 0.0 0.0 0.00 0.00 0.00 38 1012.9
20260901223821 78 211 0.0 0.0 0.00 0.00 0.00 39 1012.9
20260901223331 78 235 0.0 0.0 0.00 0.00 0.00 39 1012.9
20260901222821 78 355 0.0 0.0 0.00 0.00 0.00 40 1013.0
20260901222331 78 279 0.0 0.0 0.00 0.00 0.00 39 1013.0
20260901221819 78 222 0.0 0.0 0.00 0.00 0.00 40 1013.2
20260901221328 78 219 0.0 0.0 0.00 0.00 0.00 39 1013.2
20260901220822 78 298 0.0 0.0 0.00 0.00 0.00 40 1013.3
20260901220332 78 224 0.0 0.0 0.00 0.00 0.00 40 1013.2
20260901215820 78 232 0.0 0.0 0.00 0.00 0.00 41 1013.4
20260901215332 78 160 0.0 0.0 0.00 0.00 0.00 42 1013.3
20260901214819 77 173 0.0 0.0 0.00 0.00 0.00 42 1013.4
20260901214328 77 273 0.0 0.0 0.00 0.00 0.00 42 1013.2
20260901213819 77 232 0.0 0.0 0.00 0.00 0.00 42 1013.4
20260901213328 77 245 0.0 0.0 0.00 0.00 0.00 43 1013.3
20260901212816 76 210 0.0 0.0 0.00 0.00 0.00 43 1013.3
20260901212332 76 125 0.0 0.0 0.00 0.00 0.00 43 1013.3
20260901211820 76 203 0.0 0.0 0.00 0.00 0.00 45 1013.3
20260901211329 75 255 0.0 0.0 0.00 0.00 0.00 44 1013.4
20260901210818 75 221 0.0 0.0 0.00 0.00 0.00 45 1013.5
20260901210328 75 184 0.0 0.0 0.00 0.00 0.00 46 1013.6
20260901205836 75 244 0.0 0.0 0.00 0.00 0.00 47 1013.5
20260901205324 74 171 0.0 0.0 0.00 0.00 0.00 47 1013.7
20260901204831 74 210 0.0 0.0 0.00 0.00 0.00 47 1013.7
20260901204320 74 279 0.0 0.0 0.00 0.00 0.00 47 1013.8
20260901203832 74 259 0.0 0.0 0.00 0.00 0.00 47 1013.8
20260901203321 74 271 0.0 0.0 0.00 0.00 0.00 48 1014.0
20260901202832 74 262 0.0 0.0 0.00 0.00 0.00 47 1014.0